Sister Bay, Wisconsin, United States (54234)
Lat: 45.19N, Lon: 87.12W
Wx Zone: WIZ022
Local Info
Past Weather Observations for Friday, November 21, 2014

NOTE: This archive is for the closest National Weather Service station to Sister Bay. Information may differ from the station used for current weather conditions.

Click here for Long-term Archive

Time Weather Temperature Dewpoint Humidity Pressure Winds Precip Visibility
23:55
Overcast
25°F / -4°C 16°F / -9°C 69% 29.92 in
(1013 mb)
SW 13.8 mph
(SW 22 kph)
- 10SM
23:35
Overcast
25°F / -4°C 16°F / -9°C 69% 29.92 in
(1013 mb)
SW 13.8 mph
(SW 22 kph)
- 10SM
23:15
Overcast
25°F / -4°C 16°F / -9°C 69% 29.95 in
(1014 mb)
SW 16.1 mph
(SW 26 kph)
- 10SM
22:55
Overcast
25°F / -4°C 14°F / -10°C 63% 29.95 in
(1014 mb)
SW 13.8 mph
(SW 22 kph)
- 10SM
22:35
Overcast
25°F / -4°C 14°F / -10°C 63% 29.95 in
(1014 mb)
SW 17.3 mph
(SW 28 kph)
- 10SM
22:15
Overcast
25°F / -4°C 14°F / -10°C 63% 29.95 in
(1014 mb)
SW 12.7 mph
(SW 20 kph)
- 10SM
21:55
Overcast
23°F / -5°C 14°F / -10°C 68% 29.95 in
(1014 mb)
SSE 16.1 mph
(SSE 26 kph)
- 10SM
21:35
Mostly Cloudy
23°F / -5°C 12°F / -11°C 63% 29.98 in
(1015 mb)
SSE 15 mph
(SSE 24 kph)
- 10SM
21:15
Clear
23°F / -5°C 10°F / -12°C 58% 29.98 in
(1015 mb)
SSE 16.1 mph
(SSE 26 kph)
- 10SM
20:55
Clear
23°F / -5°C 10°F / -12°C 58% 29.98 in
(1015 mb)
SSE 17.3 mph
(SSE 28 kph)
- 10SM
20:35
Clear
23°F / -5°C 10°F / -12°C 58% 30.01 in
(1016 mb)
SSE 17.3 mph
(SSE 28 kph)
- 10SM
20:15
Clear
21°F / -6°C 10°F / -12°C 63% 30.01 in
(1016 mb)
SSE 16.1 mph
(SSE 26 kph)
- 10SM
19:55
Clear
21°F / -6°C 9°F / -13°C 58% 30.04 in
(1017 mb)
SSE 15 mph
(SSE 24 kph)
- 10SM
19:35
Clear
21°F / -6°C 9°F / -13°C 58% 30.04 in
(1017 mb)
SSE 17.3 mph
(SSE 28 kph)
- 10SM
19:15
Clear
21°F / -6°C 9°F / -13°C 58% 30.04 in
(1017 mb)
S 16.1 mph
(S 26 kph)
- 10SM
18:55
Clear
21°F / -6°C 9°F / -13°C 58% 30.04 in
(1017 mb)
S 16.1 mph
(S 26 kph)
- 10SM
18:35
Clear
19°F / -7°C 7°F / -14°C 58% 30.06 in
(1018 mb)
S 12.7 mph
(S 20 kph)
- 10SM
18:15
Partly Cloudy
19°F / -7°C 7°F / -14°C 58% 30.06 in
(1018 mb)
S 11.5 mph
(S 19 kph)
- 10SM
17:55
Overcast
21°F / -6°C 9°F / -13°C 58% 30.06 in
(1018 mb)
S 11.5 mph
(S 19 kph)
- 10SM
17:35
Mostly Cloudy
21°F / -6°C 7°F / -14°C 54% 30.09 in
(1019 mb)
S 13.8 mph
(S 22 kph)
- 10SM
17:15
Overcast
21°F / -6°C 9°F / -13°C 58% 30.09 in
(1019 mb)
S 13.8 mph
(S 22 kph)
- 10SM
16:55
Overcast
21°F / -6°C 7°F / -14°C 54% 30.09 in
(1019 mb)
S 13.8 mph
(S 22 kph)
- 10SM
16:35
Overcast
21°F / -6°C 7°F / -14°C 54% 30.09 in
(1019 mb)
S 12.7 mph
(S 20 kph)
- 10SM
16:15
Overcast
21°F / -6°C 7°F / -14°C 54% 30.09 in
(1019 mb)
S 16.1 mph
(S 26 kph)
- 10SM
15:55
Overcast
21°F / -6°C 7°F / -14°C 54% 30.09 in
(1019 mb)
S 11.5 mph
(S 19 kph)
- 10SM
15:35
Partly Cloudy
21°F / -6°C 5°F / -15°C 49% 30.12 in
(1020 mb)
S 11.5 mph
(S 19 kph)
- 10SM
15:15
Clear
21°F / -6°C 7°F / -14°C 54% 30.12 in
(1020 mb)
S 12.7 mph
(S 20 kph)
- 10SM
14:55
Clear
21°F / -6°C 5°F / -15°C 49% 30.12 in
(1020 mb)
S 16.1 mph
(S 26 kph)
- 10SM
14:35
Clear
21°F / -6°C 7°F / -14°C 54% 30.12 in
(1020 mb)
S 11.5 mph
(S 19 kph)
- 10SM
14:15
Clear
21°F / -6°C 5°F / -15°C 49% 30.15 in
(1021 mb)
S 10.4 mph
(S 17 kph)
- 10SM
13:55
Clear
19°F / -7°C 5°F / -15°C 53% 30.15 in
(1021 mb)
S 13.8 mph
(S 22 kph)
- 10SM
13:35
Clear
19°F / -7°C 5°F / -15°C 53% 30.15 in
(1021 mb)
S 11.5 mph
(S 19 kph)
- 10SM
13:15
Clear
19°F / -7°C 3°F / -16°C 49% 30.18 in
(1022 mb)
S 13.8 mph
(S 22 kph)
- 10SM
12:55
Clear
19°F / -7°C 5°F / -15°C 53% 30.18 in
(1022 mb)
S 9.2 mph
(S 15 kph)
- 10SM
12:35
Clear
18°F / -8°C 5°F / -15°C 58% 30.21 in
(1023 mb)
S 6.9 mph
(S 11 kph)
- 10SM
12:15
Clear
16°F / -9°C 5°F / -15°C 62% 30.21 in
(1023 mb)
S 6.9 mph
(S 11 kph)
- 10SM
11:55
Clear
16°F / -9°C 3°F / -16°C 57% 30.21 in
(1023 mb)
S 6.9 mph
(S 11 kph)
- 10SM
11:35
Clear
14°F / -10°C 1°F / -17°C 57% 30.21 in
(1023 mb)
SSE 9.2 mph
(SSE 15 kph)
- 10SM
11:15
Partly Cloudy
14°F / -10°C 1°F / -17°C 57% 30.21 in
(1023 mb)
SW 10.4 mph
(SW 17 kph)
- 10SM
10:55
Partly Cloudy
14°F / -10°C 3°F / -16°C 62% 30.24 in
(1024 mb)
SW 11.5 mph
(SW 19 kph)
- 10SM
09:55
Partly Cloudy
12°F / -11°C 1°F / -17°C 62% 30.24 in
(1024 mb)
SW 12.7 mph
(SW 20 kph)
- 10SM
09:35
Partly Cloudy
10°F / -12°C 1°F / -17°C 67% 30.24 in
(1024 mb)
SW 10.4 mph
(SW 17 kph)
- 10SM
09:15
Mostly Cloudy
9°F / -13°C 1°F / -17°C 72% 30.27 in
(1025 mb)
SSE 6.9 mph
(SSE 11 kph)
- 10SM
08:55
Clear
5°F / -15°C 1°F / -17°C 85% 30.27 in
(1025 mb)
SW 6.9 mph
(SW 11 kph)
- 10SM
08:35
Clear
1°F / -17°C -2°F / -19°C 85% 30.27 in
(1025 mb)
SSE 4.6 mph
(SSE 7 kph)
- 10SM
08:15
Partly Cloudy
°F / -18°C -4°F / -20°C 84% 30.27 in
(1025 mb)
S 5.8 mph
(S 9 kph)
- 10SM
07:55
Partly Cloudy
°F / -18°C -4°F / -20°C 84% 30.27 in
(1025 mb)
Calm - 10SM
07:35
Partly Cloudy
1°F / -17°C -2°F / -19°C 85% 30.24 in
(1024 mb)
Calm - 10SM
07:15
Mostly Cloudy
°F / -18°C -2°F / -19°C 92% 30.27 in
(1025 mb)
Calm - 10SM
06:55
Overcast
°F / -18°C -4°F / -20°C 84% 30.24 in
(1024 mb)
Calm - 10SM
06:35
Overcast
°F / -18°C -2°F / -19°C 92% 30.24 in
(1024 mb)
S 3.5 mph
(S 6 kph)
- 10SM
06:15
Overcast
°F / -18°C -4°F / -20°C 84% 30.24 in
(1024 mb)
Calm - 10SM
05:55
Mostly Cloudy
°F / -18°C -4°F / -20°C 84% 30.24 in
(1024 mb)
Calm - 10SM
05:35
Clear
-2°F / -19°C -6°F / -21°C 84% 30.24 in
(1024 mb)
Calm - 10SM
05:15
Clear
-4°F / -20°C -8°F / -22°C 84% 30.24 in
(1024 mb)
Calm - 10SM
04:55
Clear
-8°F / -22°C -11°F / -24°C 84% 30.24 in
(1024 mb)
Calm - 10SM
04:35
Clear
-8°F / -22°C -9°F / -23°C 92% 30.24 in
(1024 mb)
Calm - 10SM
04:15
Clear
-9°F / -23°C -11°F / -24°C 92% 30.24 in
(1024 mb)
Calm - 10SM
03:55
Clear
-11°F / -24°C -13°F / -25°C 91% 30.24 in
(1024 mb)
Calm - 10SM
03:35
Clear
-9°F / -23°C -13°F / -25°C 84% 30.24 in
(1024 mb)
Calm - 10SM
03:15
Clear
-9°F / -23°C -11°F / -24°C 92% 30.24 in
(1024 mb)
Calm - 10SM
02:55
Clear
-8°F / -22°C -11°F / -24°C 84% 30.24 in
(1024 mb)
Calm - 10SM
02:35
Clear
-8°F / -22°C -9°F / -23°C 92% 30.21 in
(1023 mb)
Calm - 10SM
02:15
Clear
-8°F / -22°C -11°F / -24°C 84% 30.21 in
(1023 mb)
Calm - 10SM
01:55
Clear
-8°F / -22°C -11°F / -24°C 84% 30.21 in
(1023 mb)
Calm - 10SM
01:35
Clear
-8°F / -22°C -9°F / -23°C 92% 30.21 in
(1023 mb)
Calm - 10SM
01:15
Clear
-4°F / -20°C -8°F / -22°C 84% 30.21 in
(1023 mb)
Calm - 10SM
00:55
Clear
-4°F / -20°C -6°F / -21°C 92% 30.21 in
(1023 mb)
Calm - 10SM
00:35
Clear
-4°F / -20°C -6°F / -21°C 92% 30.21 in
(1023 mb)
Calm - 10SM
00:15
Clear
-2°F / -19°C -6°F / -21°C 84% 30.18 in
(1022 mb)
W 3.5 mph
(W 6 kph)
- 10SM
Time Weather Temperature Dewpoint Humidity Pressure Winds Precip Visibility


Weather for websites

WeatherForYou.com, LLC is not responsible for any damages or problems caused by this service. Current weather conditions are obtained from the closest station including government and personal stations which may have varying degrees of accuracy. Weather forecasts are derived from the NOAA NDFD. Like all things, this site belongs to Jesus Christ... He just trusts me to maintain it. If you have any questions or comments email webmaster@weatherforyou.com

Copyright © 2014, WeatherForYou.com LLC. All rights reserved.